Weather History for Okeechobee, FL

Change the Weather History Date:

Friday, January 18, 2013

  Actual Average Record
Temperature  
Mean Temperature 56 °F -  
Max Temperature 71 °F 74 °F 85 °F (1989)
Min Temperature 42 °F 49 °F 29 °F (1965)
Degree Days  
Heating Degree Days 8    
Growing Degree Days 6 (Base 50)    
Moisture  
Dew Point 49 °F    
Average Humidity 74    
Maximum Humidity 100    
Minimum Humidity 53    
Precipitation  
Precipitation 0.00 in - - ()
Sea Level Pressure  
Sea Level Pressure 30.21 in    
Wind  
Wind Speed 9 mph (North)    
Max Wind Speed 16 mph    
Max Gust Speed 23 mph    
Visibility 10 miles    
Events Rain    
Averages and records for this station are not official NWS values.
T = Trace of Precipitation, MM = Missing Value Source: NWS Daily Summary

Daily Weather History Graph

Daily Weather History Graph

Search for Another Location

Airport:

Trip Planner

Search our weather history database for the weather conditions in past years. The results will help you decide how hot, cold, wet, or windy it might be!

Date:

Astronomy

Jan. 18, 2013 Rise Set
Actual Time 7:14 AM EST 5:54 PM EST
Civil Twilight 6:49 AM EST 6:18 PM EST
Nautical Twilight 6:20 AM EST 6:47 PM EST
Astronomical Twilight 5:52 AM EST 7:15 PM EST
Moon 11:36 AM EST 12:00 AM EST
Length of Visible Light 11h 29m
Length of Day
10h 39m
Waxing Crescent, 47% of the Moon is Illuminated
Jan 18
Waxing Crescent
Jan 18
First Quarter
Jan 26
Full
Feb 3
Last Quarter
Feb 10
New

Hourly Weather History & Observations

Time (EST) Temp. Windchill Dew Point Humidity Pressure Visibility Wind Dir Wind Speed Gust Speed Precip Events Conditions
12:15 AM 55.4 °F - 48.2 °F 77% 30.12 in 10.0 mi WNW 9.2 mph 16.1 mph N/A   Clear
12:35 AM 53.6 °F - 46.4 °F 77% 30.12 in 10.0 mi WNW 10.4 mph - N/A   Clear
12:55 AM 53.6 °F - 46.4 °F 77% 30.12 in 10.0 mi WNW 12.7 mph - N/A   Clear
1:15 AM 53.6 °F - 46.4 °F 77% 30.13 in 10.0 mi WNW 11.5 mph - N/A   Clear
1:35 AM 53.6 °F - 46.4 °F 77% 30.13 in 10.0 mi WNW 11.5 mph - N/A   Clear
1:55 AM 53.6 °F - 46.4 °F 77% 30.13 in 10.0 mi WNW 11.5 mph - N/A   Clear
2:15 AM 51.8 °F - 46.4 °F 82% 30.13 in 10.0 mi WNW 8.1 mph - N/A   Clear
2:35 AM 51.8 °F - 46.4 °F 82% 30.13 in 10.0 mi WNW 8.1 mph - N/A   Clear
2:55 AM 51.8 °F - 44.6 °F 76% 30.14 in 10.0 mi NW 6.9 mph - N/A   Clear
3:15 AM 50.0 °F - 44.6 °F 82% 30.14 in 10.0 mi NW 5.8 mph - N/A   Clear
3:35 AM 50.0 °F - 44.6 °F 82% 30.15 in 10.0 mi NW 8.1 mph - N/A   Clear
3:55 AM 50.0 °F - 44.6 °F 82% 30.15 in 10.0 mi NNW 8.1 mph - N/A   Clear
4:15 AM 50.0 °F - 44.6 °F 82% 30.16 in 10.0 mi NNW 8.1 mph - N/A   Mostly Cloudy
4:35 AM 50.0 °F - 44.6 °F 82% 30.17 in 10.0 mi NNW 11.5 mph - N/A   Overcast
4:55 AM 51.8 °F - 44.6 °F 76% 30.17 in 10.0 mi NNW 10.4 mph 17.3 mph N/A   Overcast
5:15 AM 50.0 °F - 42.8 °F 76% 30.17 in 10.0 mi NNW 9.2 mph - N/A   Overcast
5:35 AM 50.0 °F - 42.8 °F 76% 30.19 in 10.0 mi NNW 13.8 mph 18.4 mph N/A   Overcast
5:55 AM 48.2 °F - 41.0 °F 76% 30.20 in 10.0 mi NNW 15.0 mph 19.6 mph N/A   Overcast
6:15 AM 46.4 °F 41.1 °F 41.0 °F 81% 30.21 in 10.0 mi NW 11.5 mph - N/A   Overcast
6:35 AM 46.4 °F 40.7 °F 39.2 °F 76% 30.23 in 10.0 mi NNW 12.7 mph - N/A   Overcast
6:55 AM 44.6 °F 38.8 °F 39.2 °F 81% 30.24 in 10.0 mi NNW 11.5 mph 16.1 mph N/A   Scattered Clouds
7:15 AM 42.8 °F 38.0 °F 37.4 °F 81% 30.25 in 10.0 mi NNW 8.1 mph 17.3 mph N/A   Scattered Clouds
7:35 AM 44.6 °F 40.2 °F 37.4 °F 76% 30.25 in 10.0 mi NNW 8.1 mph - N/A   Overcast
7:55 AM 44.6 °F 41.4 °F 37.4 °F 76% 30.26 in 10.0 mi NNW 5.8 mph - N/A   Overcast
8:15 AM 44.6 °F 40.7 °F 37.4 °F 76% 30.27 in 10.0 mi NW 6.9 mph - N/A   Overcast
8:35 AM 44.6 °F 40.7 °F 37.4 °F 76% 30.27 in 10.0 mi NW 6.9 mph - N/A   Overcast
8:55 AM 46.4 °F 42.9 °F 39.2 °F 76% 30.27 in 10.0 mi NW 6.9 mph - N/A   Scattered Clouds
9:15 AM 46.4 °F 42.9 °F 39.2 °F 76% 30.28 in 10.0 mi WNW 6.9 mph - N/A   Mostly Cloudy
9:35 AM 50.0 °F - 41.0 °F 71% 30.29 in 10.0 mi NW 5.8 mph - N/A   Mostly Cloudy
9:55 AM 50.0 °F - 41.0 °F 71% 30.28 in 10.0 mi NW 9.2 mph - N/A   Scattered Clouds
10:15 AM 53.6 °F - 42.8 °F 67% 30.28 in 10.0 mi NNW 8.1 mph - N/A   Clear
10:35 AM 53.6 °F - 42.8 °F 67% 30.27 in 10.0 mi NNW 6.9 mph - N/A   Clear
10:55 AM 55.4 °F - 44.6 °F 67% 30.27 in 10.0 mi North 6.9 mph - N/A   Clear
11:15 AM 59.0 °F - 44.6 °F 59% 30.26 in 10.0 mi NNW 8.1 mph - N/A   Clear
11:35 AM 60.8 °F - 46.4 °F 59% 30.25 in 10.0 mi NNW 6.9 mph - N/A   Clear
11:55 AM 62.6 °F - 46.4 °F 55% 30.24 in 10.0 mi North 8.1 mph - N/A   Clear
12:15 PM 62.6 °F - 48.2 °F 59% 30.23 in 10.0 mi North 8.1 mph 16.1 mph N/A   Clear
12:35 PM 64.4 °F - 50.0 °F 59% 30.22 in 10.0 mi North 11.5 mph - N/A   Clear
12:55 PM 66.2 °F - 51.8 °F 60% 30.21 in 10.0 mi North 10.4 mph - N/A   Scattered Clouds
1:15 PM 68.0 °F - 51.8 °F 56% 30.20 in 10.0 mi NNE 12.7 mph 17.3 mph N/A   Mostly Cloudy
1:35 PM 69.8 °F - 53.6 °F 56% 30.20 in 10.0 mi NNE 16.1 mph 23.0 mph N/A   Mostly Cloudy
1:55 PM 69.8 °F - 53.6 °F 56% 30.19 in 10.0 mi ENE 11.5 mph 19.6 mph N/A   Scattered Clouds
2:15 PM 69.8 °F - 53.6 °F 56% 30.19 in 10.0 mi NNE 9.2 mph 18.4 mph N/A   Clear
2:35 PM 71.6 °F - 53.6 °F 53% 30.18 in 10.0 mi NNE 12.7 mph 17.3 mph N/A   Scattered Clouds
2:55 PM 68.0 °F - 53.6 °F 60% 30.19 in 10.0 mi North 11.5 mph - N/A   Mostly Cloudy
3:15 PM 68.0 °F - 53.6 °F 60% 30.19 in 10.0 mi North 10.4 mph - N/A   Overcast
3:35 PM 68.0 °F - 55.4 °F 64% 30.19 in 10.0 mi NNE 9.2 mph - N/A   Overcast
3:55 PM 68.0 °F - 57.2 °F 68% 30.20 in 10.0 mi NNE 8.1 mph - N/A   Overcast
4:15 PM 68.0 °F - 57.2 °F 68% 30.20 in 10.0 mi ENE 9.2 mph - N/A   Overcast
4:35 PM 68.0 °F - 57.2 °F 68% 30.20 in 10.0 mi NNE 8.1 mph - N/A   Overcast
4:55 PM 68.0 °F - 55.4 °F 64% 30.21 in 10.0 mi NE 9.2 mph 18.4 mph N/A   Mostly Cloudy
5:15 PM 68.0 °F - 55.4 °F 64% 30.21 in 10.0 mi NE 11.5 mph 16.1 mph N/A   Mostly Cloudy
5:35 PM 68.0 °F - 55.4 °F 64% 30.21 in 10.0 mi NE 8.1 mph - N/A   Mostly Cloudy
5:55 PM 66.2 °F - 55.4 °F 68% 30.22 in 10.0 mi NE 5.8 mph - N/A   Overcast
6:15 PM 64.4 °F - 55.4 °F 73% 30.22 in 10.0 mi NE 4.6 mph - N/A   Mostly Cloudy
6:35 PM 62.6 °F - 55.4 °F 77% 30.22 in 10.0 mi NNE 4.6 mph - N/A   Scattered Clouds
6:55 PM 62.6 °F - 55.4 °F 77% 30.23 in 10.0 mi NNE 4.6 mph - N/A   Clear
7:15 PM 60.8 °F - 55.4 °F 82% 30.23 in 10.0 mi North 4.6 mph - N/A   Clear
7:35 PM 60.8 °F - 55.4 °F 82% 30.24 in 10.0 mi North 4.6 mph - N/A   Scattered Clouds
7:55 PM 60.8 °F - 55.4 °F 82% 30.24 in 10.0 mi North 4.6 mph - N/A   Mostly Cloudy
8:15 PM 60.8 °F - 55.4 °F 82% 30.24 in 10.0 mi North 3.5 mph - N/A   Overcast
8:35 PM 62.6 °F - 55.4 °F 77% 30.24 in 10.0 mi North 3.5 mph - N/A   Overcast
8:55 PM 62.6 °F - 57.2 °F 82% 30.24 in 10.0 mi NE 6.9 mph - N/A   Overcast
9:15 PM 64.4 °F - 59.0 °F 83% 30.24 in 10.0 mi NE 6.9 mph - N/A   Mostly Cloudy
9:35 PM 62.6 °F - 59.0 °F 88% 30.25 in 10.0 mi North 6.9 mph - N/A   Scattered Clouds
9:55 PM 62.6 °F - 57.2 °F 82% 30.24 in 10.0 mi North 4.6 mph - N/A   Scattered Clouds
10:15 PM 60.8 °F - 59.0 °F 94% 30.24 in 10.0 mi NNE 5.8 mph - N/A   Mostly Cloudy
10:35 PM 62.6 °F - 60.8 °F 94% 30.25 in 7.0 mi NE 6.9 mph - N/A Rain Rain
10:55 PM 62.6 °F - 60.8 °F 94% 30.24 in 10.0 mi NNE 5.8 mph - N/A   Light Drizzle
11:15 PM 62.6 °F - 60.8 °F 94% 30.24 in 10.0 mi North 5.8 mph - N/A   Overcast
11:35 PM 60.8 °F - 60.8 °F 100% 30.23 in 10.0 mi North 4.6 mph - N/A   Mostly Cloudy
11:55 PM 60.8 °F - 60.8 °F 100% 30.23 in 10.0 mi NNW 3.5 mph - N/A   Mostly Cloudy